GFSGL_850_spd_060.txt.gz
Wind_Speed
22 22 20 20 21 21 23 26 27 28 29 27 26 35 31 34 38 37 38 38 31 28 24 20 21 18 18 20 18 16 16 18 19 9 13 14 12 14 14 12 9 11 8
24 26 27 25 24 23 23 24 26 29 30 29 27 29 33 41 42 43 41 35 30 28 25 23 23 17 17 20 17 19 22 17 12 9 13 12 11 12 11 11 11 8 9
23 23 24 24 25 26 27 27 26 29 30 30 28 28 33 34 37 36 33 33 28 26 23 20 21 19 19 18 21 20 18 13 10 10 12 10 11 12 11 8 9 11 7
30 28 29 28 27 27 26 29 29 27 29 31 30 30 30 34 36 33 31 32 28 28 24 21 21 19 19 19 19 17 13 10 15 15 14 12 13 11 9 5 6 9 9
32 34 26 30 24 25 31 32 31 31 29 29 30 29 29 31 32 32 30 27 26 27 25 23 21 17 18 19 16 15 14 14 11 13 12 13 11 11 8 6 7 11 11
25 35 38 25 27 25 30 31 32 29 32 30 30 29 30 29 31 32 29 26 26 29 25 22 18 21 22 21 17 14 15 17 18 16 14 13 13 13 9 7 10 11 9
35 31 31 32 29 28 31 33 31 31 30 30 31 31 30 30 29 31 32 27 27 26 24 24 22 22 23 21 20 19 18 17 15 14 12 13 10 11 11 12 10 10 7
34 37 38 32 34 27 30 32 35 32 34 31 32 31 33 29 29 28 32 29 29 23 24 24 22 19 18 19 20 19 21 18 15 14 12 12 10 10 10 13 13 13 7
35 34 38 34 37 33 34 32 33 33 34 31 33 31 32 27 30 29 31 30 24 23 22 22 19 19 17 14 15 17 19 17 15 14 10 9 10 13 13 15 13 11 7
35 37 33 33 38 37 35 33 36 34 33 34 31 28 29 32 33 30 28 29 25 21 17 15 14 15 13 13 18 17 15 18 15 13 10 10 8 9 11 11 12 10 6
33 33 36 36 38 37 36 35 32 32 30 35 30 30 33 35 32 30 30 22 22 19 19 18 19 19 18 16 16 21 18 16 14 11 12 10 9 9 11 12 12 10 7
34 35 39 38 37 36 32 37 36 35 34 33 31 31 33 33 33 30 31 23 23 21 16 16 14 12 20 17 16 18 15 17 16 12 10 7 7 6 9 10 12 12 11
34 35 38 38 40 36 35 37 38 37 34 35 37 37 36 33 33 37 27 25 25 19 16 14 10 8 12 14 13 14 12 16 15 13 11 10 9 7 6 8 8 10 13
38 35 38 41 39 39 39 41 39 35 37 39 36 35 32 37 39 38 27 23 22 19 17 14 9 9 10 11 13 13 14 14 12 10 11 11 10 7 7 7 8 7 7
37 37 36 37 40 42 40 42 39 37 40 42 35 30 31 38 39 37 30 24 22 20 17 14 15 14 11 14 14 14 12 12 11 8 9 9 7 8 6 6 4 5 6
36 39 38 36 36 35 35 32 34 41 40 32 30 32 32 33 34 30 27 24 22 19 15 18 16 13 13 14 13 12 9 8 8 9 7 6 9 9 8 7 6 5 5
32 28 29 32 31 35 28 19 33 35 35 33 30 27 25 24 26 26 26 22 17 18 18 17 17 17 15 13 11 12 12 8 7 7 7 7 8 8 8 6 8 7 8
25 26 25 22 28 33 36 38 39 40 41 36 28 25 22 24 23 24 25 21 24 21 19 17 17 16 17 14 14 10 10 9 8 8 9 8 6 8 6 6 5 5 6
18 27 32 44 48 40 38 37 41 42 40 37 33 29 25 22 21 22 21 25 25 21 19 16 16 17 16 15 13 11 9 8 8 10 8 7 7 8 8 5 6 8 7
24 32 38 42 39 36 33 35 34 36 35 33 31 29 27 27 26 24 21 24 23 20 21 19 17 15 14 13 10 8 7 8 10 9 10 9 6 4 5 4 2 2 3
38 43 45 41 39 34 30 29 26 30 31 30 30 28 27 28 25 21 18 18 18 18 17 17 16 16 15 11 10 9 8 11 10 7 7 8 7 3 1 3 4 2 2
42 36 37 37 31 28 28 27 27 32 33 35 32 30 27 27 24 22 20 20 21 19 18 19 19 17 16 16 13 11 9 9 8 7 4 6 9 4 5 3 3 6 7
32 27 32 31 36 35 33 30 29 32 34 30 25 23 22 22 22 24 27 27 25 23 20 18 19 18 16 13 12 13 14 11 10 10 11 11 10 10 8 8 4 2 1
28 30 33 34 33 30 28 26 26 34 32 31 29 28 28 28 27 27 24 23 20 17 16 15 17 15 13 13 12 11 11 13 12 15 13 11 10 6 5 8 6 3 5
27 31 31 29 28 29 30 30 33 33 31 29 26 28 28 27 25 24 23 21 19 19 18 17 16 15 14 13 10 14 11 11 12 9 6 6 7 6 5 7 7 7 7
30 31 32 32 30 29 28 30 32 30 29 28 27 26 26 26 26 26 23 19 16 18 20 21 20 17 15 13 13 13 11 8 7 7 8 10 10 10 10 11 13 13 13

GFSGL_850_spd_063.txt.gz
Wind_Speed
16 18 18 19 20 16 19 20 22 24 26 29 31 32 34 34 35 34 35 33 36 40 44 45 42 37 34 28 29 25 22 24 21 19 17 11 13 15 14 17 14 11 9
9 13 19 23 23 21 23 23 23 24 25 28 30 32 30 31 33 35 34 32 38 41 39 39 39 34 32 26 27 25 24 21 18 21 14 10 11 13 13 11 10 11 7
21 18 15 17 25 30 25 25 27 28 29 29 31 35 36 33 30 33 38 36 42 41 39 38 38 33 30 27 25 23 22 19 19 17 14 12 12 12 9 10 9 9 7
25 28 26 21 19 26 29 28 26 27 30 33 32 33 34 32 32 32 34 36 41 40 38 33 33 33 28 25 23 22 20 17 16 15 13 10 10 9 10 9 7 7 6
18 25 31 30 30 29 28 33 33 34 35 36 36 34 32 34 35 32 34 34 35 32 32 32 30 27 23 24 20 19 16 16 15 16 15 12 12 10 10 7 6 7 6
26 26 27 28 31 38 32 31 33 36 36 33 37 37 34 33 34 31 32 34 36 30 33 29 29 24 24 23 19 15 16 18 17 16 15 14 12 10 8 7 8 10 9
31 32 34 35 41 41 42 30 31 33 33 36 35 37 36 35 31 32 32 37 32 28 30 29 28 26 25 22 20 15 18 16 15 16 16 12 12 8 7 10 7 9 7
33 35 34 34 39 38 36 34 25 27 32 34 38 34 35 34 32 32 32 34 30 28 28 29 28 26 21 19 18 18 17 17 16 14 11 9 10 9 7 10 10 9 9
38 35 36 36 38 37 41 35 29 25 31 32 33 36 34 32 32 33 29 31 33 28 26 26 24 21 19 19 19 17 20 18 16 13 10 9 8 8 9 12 14 12 10
40 38 37 35 34 35 33 38 32 31 33 31 32 35 32 33 31 32 28 32 33 27 26 24 21 19 19 17 14 13 16 17 15 11 10 9 7 6 9 10 11 12 9
40 39 37 37 35 35 32 35 40 36 35 31 30 32 29 31 33 30 31 33 31 29 25 23 19 20 16 15 14 14 12 11 12 10 10 10 9 7 8 10 12 12 11
36 36 36 33 30 31 34 34 32 34 29 32 33 32 27 33 31 32 34 32 30 28 24 21 18 18 17 16 15 16 15 12 12 11 11 12 10 8 9 11 11 12 10
32 33 34 35 34 33 35 32 32 33 34 31 32 34 27 33 32 33 31 30 27 25 22 17 14 15 14 19 17 14 15 15 16 14 11 8 7 6 8 10 10 12 11
32 30 28 30 30 32 34 35 35 37 37 36 35 32 30 36 34 37 35 30 29 26 22 17 15 12 11 13 14 13 15 15 16 14 13 9 9 8 7 7 6 9 9
35 33 32 32 31 31 34 39 40 40 38 38 38 31 38 40 40 40 36 38 35 29 23 20 16 14 14 15 15 15 16 16 16 15 14 11 9 10 9 7 5 6 8
33 35 35 33 32 32 33 35 37 41 43 45 39 32 44 40 39 39 37 34 28 23 20 21 19 17 16 18 17 17 15 14 14 13 10 8 8 8 8 6 5 5 6
28 27 27 26 28 29 27 27 31 34 36 40 40 42 43 44 44 38 33 24 22 22 21 21 21 17 19 18 18 17 16 13 12 10 9 8 10 11 9 8 8 6 5
23 24 27 32 30 30 29 25 25 21 8 21 50 43 43 48 41 32 29 28 26 21 21 22 21 20 20 19 19 17 15 13 9 10 11 11 10 10 10 9 7 7 6
18 17 16 20 22 24 23 20 23 10 30 52 44 37 36 35 34 31 27 26 27 25 22 22 23 22 20 18 18 15 13 13 13 11 12 12 10 9 8 6 5 3 5
13 16 15 17 20 38 24 22 31 37 46 46 43 42 40 39 37 32 27 29 28 26 24 23 21 22 21 19 16 12 11 10 11 14 13 10 8 7 6 5 4 4 4
10 19 4 31 28 29 32 38 43 43 45 45 44 40 35 35 34 31 32 28 28 26 24 23 24 22 17 15 14 13 13 13 15 13 11 9 9 7 5 7 6 6 2
18 27 35 38 43 43 44 43 42 43 43 43 38 33 33 33 32 31 29 28 27 25 24 23 23 21 20 17 15 15 14 15 13 11 11 11 10 10 10 9 5 5 6
37 35 38 37 40 39 39 40 41 41 41 37 33 33 32 30 28 29 29 26 25 25 24 24 23 21 18 17 14 14 15 14 13 11 16 14 11 10 8 9 7 5 5
31 31 32 31 30 33 38 41 41 38 36 36 34 33 32 30 28 27 29 29 25 24 24 22 20 18 18 16 15 14 12 14 15 16 16 14 12 9 7 6 5 5 5
29 28 29 32 32 33 35 38 36 35 33 32 30 30 33 33 33 32 32 29 25 23 22 20 20 19 17 15 14 15 14 12 15 14 11 10 9 8 7 7 8 9 10
31 29 28 28 28 28 32 34 32 30 31 32 34 36 34 33 30 27 24 22 22 23 23 22 19 18 17 16 17 14 13 12 10 8 8 9 11 13 13 15 15 13 12

GFSGL_850_spd_069.txt.gz
Wind_Speed
18 19 18 16 13 11 11 9 9 8 8 11 13 15 16 19 21 24 25 25 26 27 29 34 35 31 31 29 26 25 24 21 28 29 25 23 21 23 14 12 13 16 20
23 25 22 20 19 18 17 16 15 14 11 9 10 13 14 16 17 19 24 26 27 27 32 32 36 37 36 37 32 29 28 23 25 22 23 20 21 18 12 13 15 18 20
30 30 28 27 24 20 19 17 17 18 17 15 15 15 17 17 18 21 23 24 27 31 32 32 34 33 37 33 29 30 29 24 24 22 22 20 19 17 10 13 15 18 19
37 34 34 32 26 21 19 20 20 19 18 19 21 22 22 23 24 25 26 27 28 29 31 31 32 27 30 31 32 32 27 22 25 22 24 21 20 17 11 12 15 18 17
31 32 31 28 26 27 25 25 24 23 21 20 21 23 24 26 26 28 31 29 28 28 28 29 28 28 28 30 31 32 27 23 24 22 22 21 21 14 10 14 16 17 12
31 36 35 33 30 30 29 28 28 28 26 27 28 26 25 26 27 29 32 31 30 28 29 27 28 29 29 26 28 23 22 21 23 22 21 21 13 13 12 16 15 15 11
21 23 25 28 30 30 29 31 31 32 34 34 32 33 34 32 30 32 33 32 31 30 26 28 28 28 27 26 25 20 20 20 22 20 18 17 12 12 14 16 16 14 10
34 33 33 33 33 34 35 37 37 36 37 40 42 42 40 39 35 34 35 33 28 30 26 29 29 29 28 26 23 23 20 22 23 18 14 10 10 11 13 11 10 12 12
48 47 43 41 40 39 40 41 41 40 39 41 42 47 48 43 33 30 32 32 27 31 28 30 29 28 27 23 20 21 22 26 21 16 15 11 12 12 12 15 16 16 13
53 47 42 44 43 43 42 40 40 39 42 41 43 44 44 39 30 25 29 33 27 31 30 30 28 26 22 20 20 21 28 24 20 20 18 14 14 13 14 14 12 14 11
52 48 46 44 43 42 38 37 37 35 36 38 38 36 35 33 29 25 30 31 30 30 32 29 22 20 18 18 18 27 27 18 18 17 15 15 14 15 15 14 13 12 11
41 42 44 42 42 39 41 42 38 38 37 38 37 35 32 31 31 23 31 31 30 31 31 26 20 22 19 12 19 28 18 14 16 18 17 15 16 16 14 14 13 12 11
46 49 47 45 44 45 42 39 38 38 39 41 37 39 36 26 28 25 30 31 32 30 29 26 23 28 22 19 27 24 18 17 18 18 17 16 15 13 13 14 13 12 12
41 37 39 38 39 39 39 40 41 41 36 34 35 35 33 27 30 26 31 31 27 28 29 24 26 25 20 26 27 22 19 19 17 16 16 15 17 16 15 14 13 11 11
41 40 39 38 40 41 41 41 40 38 37 34 31 29 28 27 29 29 27 24 24 25 23 23 27 26 24 29 26 22 20 18 18 17 18 20 19 16 14 13 12 11 10
37 34 32 31 32 33 34 33 33 31 30 32 32 30 31 27 27 31 28 22 23 20 24 29 28 27 30 28 26 25 24 21 21 21 21 19 17 16 14 13 11 10 9
38 34 32 34 33 32 33 33 30 27 28 28 27 28 30 26 24 24 24 23 20 16 30 29 30 28 27 26 26 26 25 23 21 22 22 19 16 16 14 12 10 8 8
33 30 33 31 32 29 29 28 28 26 27 28 28 28 29 28 26 23 22 18 17 25 24 27 29 26 24 22 22 22 21 21 22 22 20 17 16 15 14 12 10 9 8
27 33 32 29 29 30 28 27 26 26 25 24 22 24 27 27 25 24 19 19 27 27 25 29 27 24 23 25 24 23 24 23 22 21 19 17 16 15 14 12 11 10 8
23 26 28 27 24 24 27 27 25 24 22 19 16 18 20 22 25 22 17 28 28 26 30 29 26 25 27 26 25 24 24 22 21 19 17 16 14 15 13 11 9 10 11
22 23 23 24 25 25 25 25 24 24 23 22 18 11 10 17 19 19 30 28 31 32 30 29 28 28 27 27 26 25 23 19 16 17 16 16 15 14 12 11 10 8 8
14 17 21 22 22 23 22 23 24 25 23 25 17 14 13 14 20 34 34 33 28 31 30 28 28 27 28 27 25 22 19 18 18 17 17 15 14 13 13 12 11 10 8
7 10 17 20 19 22 25 24 30 28 28 21 20 28 28 26 34 35 30 28 30 29 28 27 27 27 25 23 19 17 16 15 17 19 17 16 15 12 12 12 11 10 12
16 19 24 25 21 24 25 27 23 21 26 28 31 28 35 38 34 32 31 30 29 28 27 27 26 25 22 20 18 17 15 17 19 18 16 16 14 14 12 13 13 11 9
18 13 15 19 25 29 32 35 40 39 35 32 36 34 36 31 31 32 31 29 28 28 27 26 23 20 17 16 17 19 20 19 17 15 16 16 15 14 14 12 11 11 10
16 14 13 14 17 24 28 29 31 31 30 27 27 27 30 31 32 31 29 27 26 24 24 23 22 20 18 18 20 19 18 16 17 18 17 17 16 15 14 13 13 13 13

GFSGL_850_spd_072.txt.gz
Wind_Speed
18 16 17 14 12 11 10 11 11 11 10 11 12 11 11 11 12 14 14 16 18 19 20 25 26 25 25 25 24 19 24 21 24 23 25 22 17 13 14 14 11 12 14
23 23 16 16 14 15 13 14 13 11 11 8 7 7 6 6 8 9 11 12 16 19 22 24 27 28 23 21 21 23 20 16 19 25 26 20 16 14 14 15 13 11 14
30 30 27 23 24 22 20 18 15 13 14 13 11 9 7 5 6 6 9 12 15 18 21 24 26 26 23 24 24 21 19 19 22 26 26 21 17 16 13 14 13 11 13
31 32 30 28 27 27 25 22 19 13 12 13 14 13 11 11 12 12 13 15 17 21 22 23 25 23 22 21 28 26 25 19 22 33 31 26 19 16 15 14 13 11 14
18 29 35 32 31 29 29 27 24 19 16 15 15 13 12 12 15 16 16 18 20 23 23 23 25 25 22 22 22 26 25 26 26 35 32 29 19 17 15 13 12 11 12
20 21 23 33 36 35 34 31 29 24 22 20 19 18 17 15 13 16 20 23 24 24 27 26 25 25 26 23 22 20 23 27 29 32 29 25 16 15 12 13 12 11 10
16 21 19 24 27 29 31 32 31 29 27 25 23 22 23 24 23 24 23 26 28 28 30 29 28 26 27 26 21 20 22 24 23 22 24 16 13 11 10 13 12 10 6
29 26 28 23 22 24 27 30 29 27 27 27 27 28 29 30 32 32 33 33 31 31 29 28 28 30 29 26 22 22 21 19 18 18 15 10 11 10 10 10 8 8 6
44 41 35 32 32 31 31 32 31 30 30 30 32 34 37 38 36 36 35 32 31 30 28 28 28 31 30 25 24 24 20 19 17 14 14 14 14 12 12 13 12 8 7
53 52 47 44 44 42 41 41 40 39 38 38 41 41 39 42 40 40 35 28 30 27 27 29 29 29 28 22 25 20 15 16 17 11 17 18 14 13 12 11 9 7 8
47 45 48 46 49 52 50 48 46 45 43 43 43 44 44 41 39 39 34 29 27 26 26 29 30 27 23 22 20 15 12 14 14 14 19 19 15 14 12 11 10 8 9
49 50 50 50 45 43 44 48 45 41 40 41 39 40 40 40 38 35 30 29 22 26 24 29 30 24 22 17 17 17 15 15 14 16 21 20 17 15 13 10 9 9 10
46 45 42 40 39 41 41 42 40 38 38 37 35 35 37 38 37 32 26 27 21 25 24 30 29 22 22 18 16 15 15 13 15 21 22 18 15 14 13 12 10 10 11
48 44 40 39 38 32 36 39 38 39 38 36 35 36 38 37 34 30 27 24 23 25 26 32 26 24 20 18 17 17 15 18 23 21 19 17 17 16 14 12 10 13 13
44 42 41 39 40 44 43 38 40 43 41 37 38 38 35 31 29 26 25 23 27 22 28 28 27 26 25 27 22 19 18 23 23 21 20 19 18 16 14 13 12 14 14
37 38 37 35 27 31 33 36 36 36 36 37 35 33 30 26 21 22 23 23 24 22 23 26 28 24 30 27 23 22 27 24 22 21 20 18 18 16 14 13 14 13 11
32 32 32 34 32 32 35 40 38 42 36 30 25 24 25 25 25 24 21 19 19 21 26 25 23 27 32 24 24 30 28 21 20 21 20 19 17 16 14 15 13 11 10
28 31 28 30 31 31 30 28 29 29 29 30 29 28 28 27 28 24 24 22 22 24 24 22 24 30 34 27 31 30 28 26 24 22 22 20 19 19 18 16 13 9 9
21 28 26 26 26 26 25 24 23 24 24 25 25 27 28 28 30 29 27 27 25 23 24 26 24 24 26 26 26 24 23 24 21 22 23 21 18 20 17 16 12 10 9
21 23 24 26 25 22 21 21 21 22 24 24 23 22 23 26 29 30 29 27 25 22 26 25 23 21 25 22 22 21 22 21 22 23 23 20 18 17 16 13 12 12 11
18 23 26 21 19 19 21 23 22 21 21 21 21 18 17 20 24 27 28 27 25 26 25 23 24 25 22 23 23 24 24 23 22 23 21 19 19 18 15 13 10 11 12
15 17 19 21 21 20 18 18 20 21 23 23 20 17 13 14 18 23 26 27 28 27 26 23 23 23 24 26 25 24 24 24 23 21 21 20 18 16 16 13 12 10 11
13 16 18 20 22 22 22 23 23 20 20 20 16 17 16 15 19 23 28 29 26 23 23 26 25 27 26 25 25 24 24 22 21 21 21 19 16 15 14 14 13 12 10
0 8 13 15 20 24 23 21 22 24 21 19 20 17 16 20 21 23 19 17 14 23 28 26 27 28 28 26 25 23 18 18 20 19 16 14 15 14 16 14 13 15 15
18 19 16 16 17 17 23 23 19 21 21 20 20 26 18 22 20 20 22 24 29 29 29 29 28 29 27 26 23 20 18 18 19 19 15 14 15 17 16 17 17 15 13
16 14 14 15 17 19 20 21 20 20 21 20 18 22 25 21 16 21 27 29 30 30 30 29 27 26 25 24 21 19 19 18 19 18 18 17 17 17 18 16 16 15 14